Powrót do katalogu

CZ-6A DEB

AktywnySSO
NORAD 54462·DEBRIS·🇨🇳 China

Wystrzelony Nov 11, 2022 z Taiyuan Satellite Launch Center

Loading…

Następne Przeloty (najbliższe 24 godziny)

TLE

ŚwieżeSource: Space-Track

Epoka: Sep 14, 2026, 07:28 UTC

1 54462U 22151GN  26257.31156581  .00002804  00000-0  14380-2 0  9996
2 54462  98.7094 216.1405 0154292  53.6184 307.9109 14.10212066196322

Śledź CZ-6A DEB w czasie rzeczywistym z AllMySat

Download on the App Store